Cedar Bluff, VA

6:11 PM EST on December 07, 2016 (GMT -0500)
Tazewell County

Weather History for KJFZ - January, 2013

Change the Weather History Date:

Wednesday, January 2, 2013

  Actual Average (KBLF) Record (KBLF)
Temperature  
Mean Temperature 29 °F 34 °F  
Max Temperature 32 °F 42 °F 67 °F (2000)
Min Temperature 26 °F 27 °F 0 °F (1979)
Degree Days  
Heating Degree Days 36 31  
Month to date heating degree days 62  
Since 1 July heating degree days 1827  
Cooling Degree Days 0 0  
Month to date cooling degree days 0  
Year to date cooling degree days 0  
Moisture  
Dew Point 29 °F    
Average Humidity 100    
Maximum Humidity 100    
Minimum Humidity 93    
Precipitation  
Precipitation 0.00 in 0.09 in 1.32 in (2004)
Month to date precipitation 0.18  
Year to date precipitation 0.18  
Snow  
Snow 0.00 in - - ()
Month to date snowfall  
Since 1 July snowfall  
Snow Depth -    
Sea Level Pressure  
Sea Level Pressure 30.04 in    
Wind  
Wind Speed 2 mph (NW)    
Max Wind Speed 7 mph    
Max Gust Speed -    
Visibility 6 miles    
Events      
T = Trace of Precipitation, MM = Missing Value Source: NWS Daily Summary

Daily Weather History Graph

Daily Weather History Graph

Search for Another Location

Airport or City:

Trip Planner

Search our weather history database for the weather conditions in past years. The results will help you decide how hot, cold, wet, or windy it might be!

Date:

Astronomy

Jan. 02, 2013 Rise Set
Actual Time 7:40 AM EST 5:22 PM EST
Civil Twilight 7:11 AM EST 5:51 PM EST
Nautical Twilight 6:39 AM EST 6:23 PM EST
Astronomical Twilight 6:07 AM EST 6:55 PM EST
Moon 10:44 PM EST (1/2) 10:29 AM EST (1/2)
Length of Visible Light 10h 39m
Length of Day
9h 41m
Waning Gibbous, 75% of the Moon is Illuminated
Jan 2
Waning Gibbous
Jan 4
Last Quarter
Jan 11
New
Jan 18
First Quarter
Jan 26
Full

Hourly Weather History & Observations

Time (EST) Temp. Windchill Dew Point Humidity Pressure Visibility Wind Dir Wind Speed Gust Speed Precip Events Conditions
12:15 AM 32.0 °F - 32.0 °F 100% 29.97 in 0.5 mi Calm Calm - N/A   Overcast
12:35 AM 30.2 °F - 30.2 °F 100% 29.95 in 0.5 mi Calm Calm - N/A   Overcast
12:55 AM 30.2 °F - 30.2 °F 100% 29.96 in 2.0 mi Calm Calm - N/A   Partly Cloudy
1:15 AM 30.2 °F 25.4 °F 30.2 °F 100% 29.96 in 3.0 mi NW 4.6 mph - N/A   Partly Cloudy
1:35 AM 30.2 °F 26.7 °F 30.2 °F 100% 29.96 in 2.0 mi West 3.5 mph - N/A   Unknown
1:55 AM 30.2 °F 25.4 °F 30.2 °F 100% 29.97 in 0.2 mi NW 4.6 mph - N/A   Overcast
2:15 AM 30.2 °F 25.4 °F 30.2 °F 100% 29.97 in 0.2 mi WNW 4.6 mph - N/A   Overcast
2:35 AM 30.2 °F 26.7 °F 30.2 °F 100% 29.98 in 0.8 mi WNW 3.5 mph - N/A   Overcast
2:55 AM 30.2 °F - 30.2 °F 100% 29.98 in 2.5 mi Calm Calm - N/A   Partly Cloudy
3:35 AM 30.2 °F - 30.2 °F 100% 29.96 in 10.0 mi Calm Calm - N/A   Unknown
3:55 AM 30.2 °F - 30.2 °F 100% 29.95 in 9.0 mi Calm Calm - N/A   Unknown
4:15 AM 30.2 °F 26.7 °F 30.2 °F 100% 29.96 in 0.2 mi WNW 3.5 mph - N/A   Overcast
4:35 AM 30.2 °F 26.7 °F 30.2 °F 100% 29.97 in 1.5 mi WNW 3.5 mph - N/A   Mostly Cloudy
4:55 AM 30.2 °F 26.7 °F 30.2 °F 100% 29.97 in 10.0 mi WNW 3.5 mph - N/A   Unknown
5:15 AM 30.2 °F 23.4 °F 30.2 °F 100% 29.98 in 10.0 mi WNW 6.9 mph - N/A   Unknown
5:35 AM 30.2 °F 24.3 °F 30.2 °F 100% 29.98 in 1.5 mi NW 5.8 mph - N/A   Mostly Cloudy
5:55 AM 30.2 °F 24.3 °F 30.2 °F 100% 29.99 in 0.5 mi WNW 5.8 mph - N/A   Overcast
6:15 AM 28.4 °F - 28.4 °F 100% 30.00 in 0.2 mi Calm Calm - N/A   Overcast
6:35 AM 28.4 °F 22.2 °F 28.4 °F 100% 30.00 in 0.2 mi NNW 5.8 mph - N/A   Overcast
6:55 AM 28.4 °F 22.2 °F 28.4 °F 100% 30.01 in 0.2 mi Variable 5.8 mph - N/A   Overcast
7:15 AM 28.4 °F 23.3 °F 28.4 °F 100% 30.03 in 0.8 mi NW 4.6 mph - N/A   Overcast
7:35 AM 28.4 °F - 28.4 °F 100% 30.04 in 0.5 mi Calm Calm - N/A   Overcast
7:55 AM 28.4 °F 24.6 °F 28.4 °F 100% 30.03 in 1.0 mi North 3.5 mph - N/A   Mostly Cloudy
8:15 AM 28.4 °F 24.6 °F 28.4 °F 100% 30.04 in 8.0 mi NW 3.5 mph - N/A   Partly Cloudy
8:35 AM 28.4 °F 23.3 °F 28.4 °F 100% 30.04 in 10.0 mi Variable 4.6 mph - N/A   Clear
8:55 AM 28.4 °F 24.6 °F 28.4 °F 100% 30.06 in 8.0 mi NW 3.5 mph - N/A   Clear
9:15 AM 28.4 °F 24.6 °F 28.4 °F 100% 30.06 in 5.0 mi Variable 3.5 mph - N/A   Clear
9:35 AM 28.4 °F 23.3 °F 28.4 °F 100% 30.07 in 9.0 mi NNW 4.6 mph - N/A   Unknown
10:15 AM 28.4 °F 24.6 °F 28.4 °F 100% 30.08 in 8.0 mi NNW 3.5 mph - N/A   Clear
10:35 AM 28.4 °F 23.3 °F 28.4 °F 100% 30.08 in 4.0 mi NW 4.6 mph - N/A   Clear
10:55 AM 28.4 °F 24.6 °F 28.4 °F 100% 30.09 in 4.0 mi WNW 3.5 mph - N/A   Unknown
11:15 AM 28.4 °F - 28.4 °F 100% 30.09 in 3.0 mi Calm Calm - N/A   Unknown
11:35 AM 26.6 °F - 26.6 °F 100% 30.07 in 2.5 mi Calm Calm - N/A   Unknown
11:55 AM 28.4 °F 24.6 °F 28.4 °F 100% 30.07 in 2.0 mi NW 3.5 mph - N/A   Unknown
12:15 PM 28.4 °F - 28.4 °F 100% 30.06 in 3.0 mi Calm Calm - N/A   Unknown
12:35 PM 28.4 °F 24.6 °F 28.4 °F 100% 30.06 in 1.2 mi NW 3.5 mph - N/A   Unknown
12:55 PM 28.4 °F - 28.4 °F 100% 30.05 in 4.0 mi Calm Calm - N/A   Clear
1:15 PM 28.4 °F 23.3 °F 28.4 °F 100% 30.06 in 4.0 mi WNW 4.6 mph - N/A   Clear
1:35 PM 28.4 °F 23.3 °F 28.4 °F 100% 30.05 in 4.0 mi WNW 4.6 mph - N/A   Clear
1:55 PM 28.4 °F - 28.4 °F 100% 30.05 in 6.0 mi Calm Calm - N/A   Clear
2:15 PM 28.4 °F 24.6 °F 28.4 °F 100% 30.06 in 8.0 mi NW 3.5 mph - N/A   Unknown
2:35 PM 28.4 °F - 28.4 °F 100% 30.04 in 10.0 mi Calm Calm - N/A   Unknown
2:55 PM 28.4 °F 24.6 °F 28.4 °F 100% 30.05 in 10.0 mi North 3.5 mph - N/A   Unknown
3:15 PM 28.4 °F - 28.4 °F 100% 30.06 in 10.0 mi Calm Calm - N/A   Unknown
3:35 PM 28.4 °F - 28.4 °F 100% 30.06 in 10.0 mi Calm Calm - N/A   Unknown
3:55 PM 28.4 °F 24.6 °F 28.4 °F 100% 30.07 in 10.0 mi North 3.5 mph - N/A   Unknown
4:15 PM 28.4 °F - 28.4 °F 100% 30.07 in 10.0 mi Calm Calm - N/A   Unknown
4:35 PM 28.4 °F - 28.4 °F 100% 30.07 in 10.0 mi Calm Calm - N/A   Unknown
4:55 PM 28.4 °F - 28.4 °F 100% 30.07 in 9.0 mi Calm Calm - N/A   Unknown
5:15 PM 28.4 °F - 28.4 °F 100% 30.07 in 10.0 mi Calm Calm - N/A   Unknown
5:35 PM 26.6 °F - 26.6 °F 100% 30.07 in 9.0 mi Calm Calm - N/A   Unknown
5:55 PM 26.6 °F - 26.6 °F 100% 30.06 in 9.0 mi Calm Calm - N/A   Unknown
6:15 PM 26.6 °F - 26.6 °F 100% 30.06 in 8.0 mi Calm Calm - N/A   Unknown
6:35 PM 26.6 °F - 26.6 °F 100% 30.08 in 10.0 mi Calm Calm - N/A   Unknown
6:55 PM 28.4 °F - 28.4 °F 100% 30.09 in 10.0 mi Calm Calm - N/A   Unknown
7:15 PM 28.4 °F - 28.4 °F 100% 30.09 in 10.0 mi Calm Calm - N/A   Unknown
7:35 PM 28.4 °F - 28.4 °F 100% 30.08 in 6.0 mi Calm Calm - N/A   Unknown
7:55 PM 28.4 °F - 28.4 °F 100% 30.08 in 6.0 mi Calm Calm - N/A   Partly Cloudy
8:15 PM 28.4 °F - 28.4 °F 100% 30.09 in 6.0 mi Calm Calm - N/A   Unknown
8:35 PM 28.4 °F 24.6 °F 28.4 °F 100% 30.09 in 7.0 mi NNW 3.5 mph - N/A   Unknown
8:55 PM 28.4 °F - 26.6 °F 93% 30.09 in 7.0 mi Calm Calm - N/A   Unknown
9:15 PM 28.4 °F - 28.4 °F 100% 30.09 in 7.0 mi Calm Calm - N/A   Unknown
9:35 PM 28.4 °F - 26.6 °F 93% 30.09 in 8.0 mi Calm Calm - N/A   Unknown
9:55 PM 28.4 °F - 28.4 °F 100% 30.10 in 7.0 mi Calm Calm - N/A   Unknown
10:15 PM 26.6 °F 22.6 °F 26.6 °F 100% 30.11 in 6.0 mi NW 3.5 mph - N/A   Unknown
10:35 PM 26.6 °F 22.6 °F 26.6 °F 100% 30.11 in 7.0 mi NW 3.5 mph - N/A   Unknown
10:55 PM 26.6 °F - 26.6 °F 100% 30.11 in 6.0 mi Calm Calm - N/A   Unknown
11:55 PM 26.6 °F - 26.6 °F 100% 30.10 in 8.0 mi Calm Calm - N/A   Clear